Location: Ca�n Batista
(41.4099°N, 1.7752°E)
Time: 15:13:29
(UTC+00:00)

BREEZE-M DEB (TANK) - Pass Details

Date: 03 March 2021
Orbit: 308 x 15401 km, 49.5° (Epoch: 21 April)

Event Time Altitude Azimuth Distance (km) Brightness Sun altitude
Rises 19:35:31 0° 300° (WNW) 2,123 6.6 -21.3°
Reaches altitude 10° 19:37:05 10° 315° (NW) 1,473 5.3 -21.5°
Maximum altitude 19:39:39 28° 20° (NNE) 1,141 3.8 -22.0°
Enters shadow 19:39:58 28° 29° (NNE) 1,202 3.8 -22.1°
